Location: Frankfurt am Main
(50.1109°N, 8.6821°E)
Time: 14:17:19
(UTC+01:00)

ISS - Pass Details

Date: 03 November 2021
Orbit: 417 x 422 km, 51.6° (Epoch: 07 December)

Event Time Altitude Azimuth Distance (km) Brightness Sun altitude
Exits shadow 04:45:39 35° 72° (ENE) 705 -2.1 -24.8°
Drops below altitude 10° 04:47:45 10° 85° (E) 1,500 0.1 -24.5°
Sets 04:49:52 0° 88° (E) 2,363 1.5 -24.2°
